�������l�o���
Date,Time,MP-1(��Sv/h),MP-2(��Sv/h),MP-3(��Sv/h),MP-4(��Sv/h),MP-5(��Sv/h),MP-6(��Sv/h),MP-7(��Sv/h),MP-8(��Sv/h),����,����(m/s),���J
2020/06/29,00:00,0.668,0.943,0.617,1.152,0.828,0.394,0.676,0.632,�k,3.0,��
2020/06/29,00:10,0.672,0.943,0.619,1.153,0.829,0.394,0.675,0.631,�k,2.0,��
2020/06/29,00:20,0.669,0.944,0.617,1.154,0.829,0.393,0.677,0.631,�k��,1.7,��
2020/06/29,00:30,0.670,0.944,0.617,1.151,0.829,0.394,0.677,0.631,���k��,1.7,��
2020/06/29,00:40,0.669,0.942,0.617,1.154,0.830,0.392,0.679,0.632,�k��,0.9,��
2020/06/29,00:50,0.668,0.944,0.618,1.151,0.830,0.393,0.677,0.631,�k��,0.9,��
2020/06/29,01:00,0.669,0.944,0.617,1.153,0.831,0.394,0.677,0.633,-,CALM,��
2020/06/29,01:10,0.669,0.942,0.617,1.153,0.828,0.393,0.677,0.631,-,CALM,��
2020/06/29,01:20,0.669,0.944,0.620,1.153,0.829,0.393,0.676,0.632,�쓌,0.6,��
2020/06/29,01:30,0.670,0.943,0.615,1.152,0.830,0.392,0.675,0.631,�쐼,1.1,��
2020/06/29,01:40,0.670,0.942,0.617,1.151,0.827,0.392,0.676,0.633,��,1.2,��
2020/06/29,01:50,0.668,0.944,0.616,1.154,0.832,0.393,0.676,0.631,���k��,3.0,��
2020/06/29,02:00,0.670,0.944,0.616,1.152,0.831,0.392,0.675,0.632,�k��,2.9,��
2020/06/29,02:10,0.669,0.945,0.616,1.151,0.830,0.393,0.677,0.633,���k��,3.4,��
2020/06/29,02:20,0.669,0.943,0.617,1.153,0.829,0.393,0.675,0.632,�k,1.4,��
2020/06/29,02:30,0.669,0.944,0.616,1.152,0.831,0.392,0.677,0.632,�k�k��,1.4,��
2020/06/29,02:40,0.670,0.943,0.618,1.152,0.827,0.392,0.676,0.634,�k�k��,0.6,��
2020/06/29,02:50,0.671,0.943,0.617,1.152,0.830,0.394,0.675,0.632,-,CALM,��
2020/06/29,03:00,0.667,0.944,0.617,1.151,0.829,0.393,0.676,0.633,��,1.1,��
2020/06/29,03:10,0.671,0.944,0.617,1.153,0.829,0.392,0.677,0.632,��쓌,0.9,��
2020/06/29,03:20,0.668,0.944,0.616,1.154,0.831,0.393,0.676,0.632,���쓌,0.9,��
2020/06/29,03:30,0.670,0.944,0.618,1.155,0.830,0.394,0.675,0.633,�쓌,0.6,��
2020/06/29,03:40,0.668,0.943,0.617,1.153,0.830,0.393,0.676,0.633,��,1.1,��
2020/06/29,03:50,0.668,0.944,0.618,1.150,0.828,0.392,0.677,0.633,���k��,1.2,��
2020/06/29,04:00,0.668,0.943,0.618,1.154,0.830,0.393,0.676,0.631,�k�k��,0.9,��
2020/06/29,04:10,0.668,0.945,0.617,1.153,0.829,0.393,0.675,0.632,�k�k��,1.1,��
2020/06/29,04:20,0.668,0.943,0.615,1.153,0.830,0.393,0.678,0.633,�k�k��,1.7,��
2020/06/29,04:30,0.667,0.943,0.617,1.154,0.828,0.391,0.675,0.632,�k,1.9,��
2020/06/29,04:40,0.669,0.943,0.618,1.153,0.830,0.393,0.676,0.632,�k�k��,2.3,��
2020/06/29,04:50,0.669,0.943,0.617,1.154,0.829,0.393,0.675,0.632,�k��,1.2,��
2020/06/29,05:00,0.668,0.943,0.616,1.153,0.829,0.392,0.675,0.632,���k��,1.5,��
2020/06/29,05:10,0.671,0.942,0.616,1.154,0.830,0.392,0.677,0.633,���k��,1.2,��
2020/06/29,05:20,0.669,0.943,0.616,1.152,0.828,0.392,0.675,0.634,��,2.0,��
2020/06/29,05:30,0.668,0.942,0.616,1.152,0.829,0.394,0.677,0.634,��,1.7,��
2020/06/29,05:40,0.669,0.943,0.616,1.156,0.830,0.393,0.675,0.631,��,1.7,��
2020/06/29,05:50,0.668,0.944,0.616,1.155,0.829,0.392,0.676,0.632,�k��,2.8,��
2020/06/29,06:00,0.670,0.944,0.617,1.152,0.830,0.393,0.676,0.632,�k��,2.3,��
2020/06/29,06:10,0.669,0.942,0.615,1.151,0.829,0.393,0.676,0.633,�k�k��,0.9,��
2020/06/29,06:20,0.670,0.942,0.616,1.153,0.828,0.393,0.675,0.632,�k��,1.5,��
2020/06/29,06:30,0.670,0.940,0.617,1.154,0.829,0.393,0.677,0.632,�k�k��,1.7,��
2020/06/29,06:40,0.670,0.944,0.613,1.154,0.831,0.392,0.677,0.633,��,1.2,��
2020/06/29,06:50,0.670,0.941,0.613,1.153,0.828,0.392,0.677,0.632,��쓌,0.9,��
2020/06/29,07:00,0.670,0.939,0.615,1.153,0.830,0.391,0.676,0.632,��,1.5,��
2020/06/29,07:10,0.670,0.942,0.614,1.153,0.828,0.391,0.677,0.634,���k��,1.7,��
2020/06/29,07:20,0.669,0.942,0.612,1.154,0.831,0.392,0.675,0.633,-,CALM,��
2020/06/29,07:30,0.669,0.943,0.613,1.154,0.831,0.389,0.674,0.633,��,1.2,��
2020/06/29,07:40,0.670,0.945,0.612,1.154,0.831,0.392,0.675,0.634,-,CALM,��
2020/06/29,07:50,0.667,0.944,0.613,1.154,0.830,0.391,0.674,0.632,���k��,0.6,��
2020/06/29,08:00,0.670,0.943,0.614,1.156,0.832,0.390,0.674,0.630,-,CALM,��
2020/06/29,08:10,0.668,0.945,0.612,1.154,0.832,0.391,0.674,0.632,�쐼,0.9,��
2020/06/29,08:20,0.669,0.943,0.612,1.155,0.831,0.392,0.674,0.630,��쓌,1.1,��
2020/06/29,08:30,0.672,0.944,0.613,1.156,0.831,0.391,0.674,0.630,�쓌,2.6,��
2020/06/29,08:40,0.670,0.943,0.613,1.158,0.831,0.391,0.674,0.631,�쓌,3.1,��
2020/06/29,08:50,0.669,0.945,0.612,1.154,0.831,0.392,0.675,0.630,�쓌,3.9,��
2020/06/29,09:00,0.669,0.945,0.612,1.152,0.829,0.391,0.674,0.631,�쓌,3.5,��
2020/06/29,09:10,0.670,0.943,0.613,1.156,0.830,0.392,0.676,0.630,�쓌,3.8,��
2020/06/29,09:20,0.671,0.944,0.609,1.157,0.831,0.393,0.675,0.632,�쓌,4.1,��
2020/06/29,09:30,0.671,0.944,0.611,1.157,0.831,0.391,0.676,0.632,��쓌,5.5,��
2020/06/29,09:40,0.670,0.945,0.611,1.156,0.833,0.394,0.674,0.633,�쓌,3.5,��
2020/06/29,09:50,0.671,0.942,0.611,1.155,0.832,0.394,0.676,0.632,�쓌,4.0,��
2020/06/29,10:00,0.671,0.944,0.612,1.157,0.831,0.393,0.674,0.631,�쓌,3.9,��
2020/06/29,10:10,0.670,0.947,0.612,1.156,0.836,0.391,0.676,0.632,���쓌,3.8,��
2020/06/29,10:20,0.672,0.947,0.613,1.159,0.835,0.393,0.677,0.633,�쓌,4.8,��
2020/06/29,10:30,0.672,0.946,0.613,1.156,0.831,0.393,0.677,0.633,��쓌,4.8,�L
2020/06/29,10:40,0.673,0.948,0.614,1.156,0.834,0.393,0.678,0.634,��쓌,6.1,��
2020/06/29,10:50,0.671,0.951,0.614,1.158,0.835,0.393,0.676,0.631,��쓌,6.2,��
2020/06/29,11:00,0.672,0.952,0.616,1.161,0.835,0.393,0.678,0.634,��쓌,6.8,��
2020/06/29,11:10,0.672,0.951,0.617,1.159,0.836,0.394,0.677,0.633,��쓌,7.8,��
2020/06/29,11:20,0.673,0.954,0.615,1.156,0.835,0.394,0.678,0.634,��쓌,7.7,��
2020/06/29,11:30,0.673,0.955,0.617,1.156,0.838,0.393,0.678,0.633,��쓌,6.7,��
2020/06/29,11:40,0.673,0.952,0.617,1.157,0.837,0.394,0.678,0.634,��쓌,7.4,��
2020/06/29,11:50,0.673,0.955,0.616,1.157,0.839,0.394,0.678,0.634,��쓌,7.6,��
2020/06/29,12:00,0.674,0.956,0.617,1.157,0.839,0.395,0.679,0.633,��쓌,8.1,��
2020/06/29,12:10,0.673,0.960,0.616,1.160,0.840,0.396,0.678,0.634,��쓌,7.9,��
2020/06/29,12:20,0.673,0.962,0.617,1.159,0.840,0.395,0.679,0.634,��쓌,5.9,��
2020/06/29,12:30,0.676,0.960,0.620,1.161,0.840,0.396,0.678,0.636,��쓌,7.3,��
2020/06/29,12:40,0.675,0.964,0.622,1.161,0.842,0.398,0.678,0.635,��쓌,8.6,��
2020/06/29,12:50,0.676,0.964,0.621,1.156,0.843,0.395,0.679,0.636,��쓌,8.8,��
2020/06/29,13:00,0.675,0.959,0.621,1.161,0.843,0.396,0.679,0.634,��쓌,10.7,��
2020/06/29,13:10,0.674,0.962,0.623,1.162,0.842,0.397,0.677,0.636,��쓌,8.9,��
2020/06/29,13:20,0.674,0.958,0.623,1.161,0.842,0.398,0.678,0.636,��쓌,7.0,��
2020/06/29,13:30,0.673,0.959,0.622,1.162,0.842,0.397,0.678,0.635,��쓌,9.1,��
2020/06/29,13:40,0.673,0.959,0.622,1.163,0.845,0.399,0.679,0.636,�쓌,7.3,��
2020/06/29,13:50,0.675,0.959,0.622,1.162,0.843,0.398,0.677,0.634,��쓌,7.8,��
2020/06/29,14:00,0.677,0.961,0.620,1.162,0.843,0.398,0.679,0.637,��쓌,7.4,��
2020/06/29,14:10,0.673,0.960,0.621,1.161,0.844,0.398,0.677,0.636,��쓌,8.8,��
2020/06/29,14:20,0.673,0.957,0.624,1.163,0.845,0.399,0.677,0.635,��쓌,7.8,��
2020/06/29,14:30,0.676,0.960,0.625,1.163,0.845,0.399,0.679,0.637,��쓌,7.8,��
2020/06/29,14:40,0.677,0.959,0.623,1.161,0.845,0.397,0.677,0.635,��쓌,7.2,��
2020/06/29,14:50,0.675,0.961,0.622,1.163,0.844,0.397,0.678,0.637,��쓌,7.2,��
2020/06/29,15:00,0.676,0.963,0.624,1.162,0.844,0.398,0.677,0.637,��쓌,7.0,��
2020/06/29,15:10,0.675,0.962,0.624,1.163,0.844,0.398,0.676,0.637,��쓌,7.2,��
2020/06/29,15:20,0.677,0.960,0.624,1.164,0.845,0.398,0.676,0.636,��쓌,6.2,��
2020/06/29,15:30,0.674,0.965,0.621,1.164,0.845,0.397,0.679,0.635,��쓌,7.1,��
2020/06/29,15:40,0.678,0.964,0.625,1.164,0.844,0.397,0.678,0.635,��쓌,7.7,��
2020/06/29,15:50,0.676,0.963,0.623,1.163,0.845,0.398,0.678,0.635,��쓌,7.2,��
2020/06/29,16:00,0.676,0.966,0.624,1.162,0.845,0.399,0.678,0.635,��,6.1,��
2020/06/29,16:10,0.676,0.965,0.623,1.166,0.844,0.398,0.677,0.635,��,6.7,��
2020/06/29,16:20,0.676,0.966,0.625,1.164,0.845,0.399,0.677,0.637,��,7.0,��
2020/06/29,16:30,0.677,0.964,0.622,1.163,0.846,0.398,0.677,0.636,��,6.7,��
2020/06/29,16:40,0.677,0.966,0.623,1.165,0.845,0.397,0.677,0.637,��,7.2,��
2020/06/29,16:50,0.675,0.965,0.624,1.166,0.845,0.397,0.678,0.635,��,8.0,��
2020/06/29,17:00,0.676,0.966,0.622,1.165,0.845,0.396,0.677,0.636,��,9.7,��
2020/06/29,17:10,0.676,0.967,0.626,1.165,0.846,0.397,0.679,0.634,��,7.6,��
2020/06/29,17:20,0.679,0.967,0.625,1.166,0.847,0.399,0.678,0.635,��,8.8,��
2020/06/29,17:30,0.675,0.965,0.625,1.168,0.845,0.399,0.680,0.635,��,9.9,�L
2020/06/29,17:40,0.674,0.966,0.625,1.167,0.846,0.399,0.679,0.635,��,9.8,�L
2020/06/29,17:50,0.677,0.967,0.625,1.169,0.843,0.398,0.679,0.636,��,8.7,��
2020/06/29,18:00,0.677,0.966,0.624,1.170,0.845,0.397,0.679,0.636,��,9.2,��
2020/06/29,18:10,0.676,0.965,0.625,1.167,0.845,0.399,0.679,0.636,��,8.5,�L
2020/06/29,18:20,0.675,0.965,0.626,1.167,0.847,0.399,0.678,0.639,��,6.9,��
2020/06/29,18:30,0.677,0.966,0.625,1.168,0.846,0.398,0.679,0.637,��,6.4,��
2020/06/29,18:40,0.675,0.966,0.627,1.167,0.846,0.398,0.680,0.639,��,8.7,��
2020/06/29,18:50,0.678,0.965,0.627,1.168,0.846,0.398,0.680,0.638,��,8.2,��
2020/06/29,19:00,0.677,0.967,0.626,1.169,0.845,0.398,0.679,0.638,��,9.7,�L
2020/06/29,19:10,0.677,0.966,0.625,1.168,0.844,0.398,0.678,0.639,��,10.2,��
2020/06/29,19:20,0.678,0.964,0.627,1.169,0.845,0.400,0.678,0.638,��,8.7,��
2020/06/29,19:30,0.676,0.966,0.626,1.168,0.847,0.399,0.679,0.638,��,8.1,��
2020/06/29,19:40,0.677,0.965,0.627,1.170,0.845,0.401,0.680,0.637,��,7.9,��
2020/06/29,19:50,0.677,0.965,0.625,1.168,0.848,0.398,0.680,0.638,��,8.2,��
2020/06/29,20:00,0.677,0.965,0.626,1.171,0.846,0.398,0.679,0.639,��,7.4,��
2020/06/29,20:10,0.677,0.967,0.626,1.167,0.848,0.398,0.678,0.637,��,6.3,��
2020/06/29,20:20,0.679,0.967,0.627,1.171,0.849,0.398,0.680,0.639,��,6.7,��
2020/06/29,20:30,0.678,0.966,0.627,1.170,0.847,0.399,0.680,0.640,��,6.4,��
2020/06/29,20:40,0.679,0.966,0.626,1.170,0.850,0.399,0.677,0.640,��,5.9,��
2020/06/29,20:50,0.677,0.965,0.625,1.169,0.847,0.399,0.678,0.639,��,5.6,��
2020/06/29,21:00,0.677,0.965,0.626,1.167,0.847,0.399,0.679,0.638,��,5.6,��
2020/06/29,21:10,0.679,0.967,0.627,1.169,0.848,0.399,0.679,0.638,��,5.7,��
2020/06/29,21:20,0.679,0.968,0.627,1.169,0.850,0.398,0.679,0.639,��,6.3,��
2020/06/29,21:30,0.678,0.966,0.626,1.169,0.850,0.399,0.679,0.638,��,5.6,��
2020/06/29,21:40,0.679,0.967,0.628,1.170,0.848,0.399,0.679,0.638,��,6.0,��
2020/06/29,21:50,0.680,0.966,0.627,1.166,0.849,0.400,0.679,0.638,��,6.3,��
2020/06/29,22:00,0.678,0.968,0.626,1.170,0.849,0.400,0.680,0.639,��,6.3,��
2020/06/29,22:10,0.678,0.966,0.628,1.169,0.847,0.398,0.681,0.638,��,5.8,��
2020/06/29,22:20,0.678,0.967,0.627,1.169,0.848,0.398,0.679,0.639,��,6.4,��
2020/06/29,22:30,0.678,0.966,0.627,1.169,0.848,0.399,0.680,0.640,��,6.6,��
2020/06/29,22:40,0.678,0.965,0.626,1.170,0.848,0.397,0.679,0.639,��,5.4,��
2020/06/29,22:50,0.679,0.965,0.627,1.171,0.849,0.401,0.679,0.638,��,4.6,��
2020/06/29,23:00,0.678,0.970,0.627,1.170,0.849,0.399,0.680,0.638,��,4.2,��
2020/06/29,23:10,0.678,0.965,0.625,1.170,0.848,0.400,0.680,0.637,��쓌,5.0,��
2020/06/29,23:20,0.678,0.967,0.626,1.168,0.847,0.399,0.678,0.638,��,4.8,��
2020/06/29,23:30,0.679,0.967,0.627,1.170,0.850,0.400,0.681,0.637,��,4.8,��
2020/06/29,23:40,0.679,0.964,0.627,1.170,0.850,0.398,0.682,0.639,��,5.7,��
2020/06/29,23:50,0.680,0.965,0.628,1.171,0.850,0.400,0.679,0.638,��,5.6,��
